Flag for U.S.A. Weather past 2 weeks in Riverside, California, U.S.A.

Now
72 °F

Sunny.


Feels Like: 77 °F
Forecast: 56 / 72 °F
Wind: 5 mph from North

Location: Riverside Municipal Airport


UV Index: 0 (Low)

Visibility: 10 mi


Pressure: 29.85 "Hg

Humidity: 46%

Dew point: 50 °F

Location of RiversideLocation

Historic Weather in Riverside

°F

Riverside temperature yesterday

Maximum temperature yesterday: 77 °F (at 2:53 PM)
Minimum temperature yesterday: 54 °F (at 4:53 AM)
Average temperature yesterday: 63 °F

Past Weeks' High & Low Weather Summary

 TemperatureHumidityPressure
High93 °F (Apr 7, 2:53 PM)97% (Apr 16, 7:02 AM)30.08 "Hg (Apr 16, 7:02 AM)
Low45 °F (Apr 5, 3:53 AM)2% (Apr 9, 1:53 PM)29.73 "Hg (Apr 16, 3:53 PM)
Average66 °F47%29.93 "Hg
* Reported Apr 3 12:53 PM — Apr 18 12:53 PM, Riverside, Weather by CustomWeather, © 2014

Note: Actual official high and low records may vary slightly from our data, if they occured in-between our weather recording intervals... More about our weather records

Advertising

Historic Weather Conditions — Data for Previous 24 hours

 ConditionsComfort  
Time TempWeatherWind HumidityBarometerVisibility
12:53 PM
Apr 18
69 °FSunny.5 mph53%29.86 "Hg10 mi
11:53 AM68 °FPassing clouds.5 mph55%29.88 "Hg10 mi
10:53 AM65 °FPartly sunny.No wind63%29.90 "Hg9 mi
9:53 AM63 °FPartly sunny.3 mph68%29.90 "Hg9 mi
8:53 AM61 °FCloudy.6 mph75%29.89 "Hg8 mi
7:53 AM60 °FPartly sunny.6 mph78%29.87 "Hg10 mi
6:53 AM59 °FOvercast.6 mph81%29.84 "Hg8 mi
5:53 AM60 °FOvercast.No wind78%29.82 "Hg8 mi
5:01 AM59 °FPassing clouds.No wind81%29.85 "Hg8 mi
3:53 AM59 °FOvercast.5 mph81%29.84 "Hg9 mi
2:53 AM59 °FOvercast.3 mph81%29.85 "Hg9 mi
1:53 AM59 °FOvercast.3 mph81%29.85 "Hg9 mi
12:53 AM59 °FOvercast.6 mph81%29.87 "Hg10 mi
11:53 PM
Apr 17
59 °FOvercast.6 mph78%29.88 "Hg10 mi
10:53 PM59 °FOvercast.5 mph81%29.88 "Hg10 mi
9:53 PM59 °FOvercast.6 mph78%29.88 "Hg10 mi
8:53 PM61 °FPassing clouds.10 mph75%29.85 "Hg10 mi
7:53 PM63 °FSunny.5 mph70%29.82 "Hg10 mi
6:53 PM67 °FSunny.8 mph63%29.80 "Hg10 mi
5:53 PM69 °FSunny.12 mph57%29.79 "Hg10 mi
4:53 PM71 °FSunny.13 mph53%29.79 "Hg10 mi
3:53 PM73 °FSunny.14 mph51%29.79 "Hg10 mi
2:53 PM77 °FPartly sunny.9 mph39%29.80 "Hg10 mi
Weather by CustomWeather, © 2014

See weather overview